Weather History for KMWK - June, 2013

Change the Weather History Date:

Wednesday, June 12, 2013

  Actual Average (KINT) Record (KINT)
Temperature  
Mean Temperature 78 °F -  
Max Temperature 92 °F 81 °F 93 °F (1993)
Min Temperature 63 °F 63 °F 40 °F (1972)
Cooling Degree Days 12    
Growing Degree Days 28 (Base 50)    
Moisture  
Dew Point 68 °F    
Average Humidity 75    
Maximum Humidity 90    
Minimum Humidity 44    
Precipitation  
Precipitation 0.00 in - - ()
Sea Level Pressure  
Sea Level Pressure 30.02 in    
Wind  
Wind Speed 1 mph (SW)    
Max Wind Speed 6 mph    
Max Gust Speed -    
Visibility 10 miles    
Events      
Averages and records for this station are not official NWS values.
T = Trace of Precipitation, MM = Missing Value Source: NWS Daily Summary

Daily Weather History Graph

Daily Weather History Graph

Search for Another Location

Airport or City:

Trip Planner

Search our weather history database for the weather conditions in past years. The results will help you decide how hot, cold, wet, or windy it might be!

Date:

Astronomy

Jun. 12, 2013 Rise Set
Actual Time 6:03 AM EDT 8:40 PM EDT
Civil Twilight 5:33 AM EDT 9:11 PM EDT
Nautical Twilight 4:55 AM EDT 9:49 PM EDT
Astronomical Twilight 4:13 AM EDT 10:31 PM EDT
Moon 9:36 AM EDT (6/12) 11:21 PM EDT (6/12)
Length of Visible Light 15h 38m
Length of Day
14h 37m
Waxing Crescent, 14% of the Moon is Illuminated
Jun 12
Waxing Crescent
Jun 16
First Quarter
Jun 23
Full
Jun 30
Last Quarter
Jul 8
New

Hourly Weather History & Observations

Time (EDT) Temp. Heat Index Dew Point Humidity Pressure Visibility Wind Dir Wind Speed Gust Speed Precip Events Conditions
12:15 AM 67.3 °F - 62.8 °F 85% 30.06 in 10.0 mi Calm Calm - N/A   Clear
12:35 AM 68.5 °F - 63.5 °F 84% 30.07 in 10.0 mi Calm Calm - N/A   Clear
12:55 AM 67.6 °F - 62.8 °F 84% 30.07 in 10.0 mi Calm Calm - N/A   Clear
1:15 AM 66.2 °F - 62.1 °F 86% 30.06 in 10.0 mi Calm Calm - N/A   Clear
1:35 AM 66.2 °F - 62.2 °F 87% 30.06 in 10.0 mi Calm Calm - N/A   Clear
1:55 AM 67.5 °F - 62.6 °F 84% 30.06 in 10.0 mi Calm Calm - N/A   Clear
2:15 AM 65.7 °F - 61.7 °F 87% 30.05 in 10.0 mi Calm Calm - N/A   Clear
2:35 AM 65.7 °F - 61.7 °F 87% 30.05 in 10.0 mi Calm Calm - N/A   Clear
2:55 AM 65.8 °F - 61.9 °F 87% 30.04 in 10.0 mi Calm Calm - N/A   Clear
3:15 AM 65.7 °F - 61.7 °F 87% 30.04 in 10.0 mi Calm Calm - N/A   Clear
3:35 AM 64.8 °F - 61.2 °F 88% 30.04 in 10.0 mi Calm Calm - N/A   Clear
3:55 AM 66.0 °F - 61.7 °F 86% 30.04 in 10.0 mi Calm Calm - N/A   Clear
4:15 AM 65.8 °F - 61.9 °F 87% 30.04 in 10.0 mi Calm Calm - N/A   Clear
4:35 AM 64.4 °F - 61.2 °F 89% 30.05 in 10.0 mi Calm Calm - N/A   Clear
4:55 AM 64.4 °F - 61.2 °F 89% 30.05 in 10.0 mi Calm Calm - N/A   Clear
5:15 AM 64.0 °F - 61.0 °F 90% 30.06 in 10.0 mi Calm Calm - N/A   Clear
5:35 AM 63.9 °F - 60.8 °F 90% 30.06 in 10.0 mi Calm Calm - N/A   Clear
5:55 AM 64.0 °F - 60.8 °F 89% 30.06 in 10.0 mi Calm Calm - N/A   Clear
6:15 AM 64.0 °F - 60.8 °F 89% 30.06 in 10.0 mi Calm Calm - N/A   Clear
6:35 AM 64.4 °F - 60.8 °F 88% 30.06 in 10.0 mi Calm Calm - N/A   Clear
6:55 AM 65.3 °F - 61.7 °F 88% 30.07 in 10.0 mi Calm Calm - N/A   Clear
7:15 AM 65.3 °F - 61.7 °F 88% 30.07 in 7.0 mi Calm Calm - N/A   Clear
7:35 AM 67.8 °F - 63.7 °F 87% 30.06 in 10.0 mi Calm Calm - N/A   Clear
7:55 AM 70.7 °F - 64.9 °F 82% 30.06 in 10.0 mi Calm Calm - N/A   Clear
8:15 AM 72.5 °F - 65.8 °F 80% 30.07 in 10.0 mi Calm Calm - N/A   Clear
8:35 AM 72.5 °F - 66.2 °F 81% 30.06 in 10.0 mi Calm Calm - N/A   Clear
8:55 AM 71.4 °F - 66.6 °F 85% 30.07 in 10.0 mi Calm Calm - N/A   Clear
9:15 AM 70.7 °F - 66.2 °F 86% 30.07 in 10.0 mi Calm Calm - N/A   Clear
9:35 AM 70.7 °F - 65.8 °F 85% 30.07 in 10.0 mi Calm Calm - N/A   Clear
9:55 AM 71.1 °F - 66.2 °F 85% 30.07 in 10.0 mi Calm Calm - N/A   Clear
10:15 AM 73.4 °F - 66.7 °F 80% 30.07 in 10.0 mi Calm Calm - N/A   Clear
10:35 AM 75.9 °F - 67.3 °F 74% 30.07 in 10.0 mi South 3.5 mph - N/A   Clear
10:55 AM 77.4 °F - 68.7 °F 75% 30.06 in 10.0 mi South 3.5 mph - N/A   Clear
11:15 AM 77.4 °F - 68.9 °F 75% 30.05 in 10.0 mi Calm Calm - N/A   Clear
11:35 AM 77.4 °F - 69.3 °F 76% 30.06 in 10.0 mi Calm Calm - N/A   Clear
11:55 AM 78.3 °F - 69.8 °F 75% 30.05 in 10.0 mi South 3.5 mph - N/A   Clear
12:15 PM 80.4 °F 84.1 °F 71.1 °F 73% 30.05 in 10.0 mi SSE 3.5 mph - N/A   Clear
12:35 PM 82.0 °F 86.7 °F 71.8 °F 71% 30.05 in 10.0 mi Calm Calm - N/A   Clear
12:55 PM 84.0 °F 90.5 °F 73.2 °F 70% 30.04 in 10.0 mi WSW 4.6 mph - N/A   Clear
1:15 PM 84.2 °F 90.3 °F 72.5 °F 68% 30.04 in 10.0 mi WSW 4.6 mph - N/A   Clear
1:35 PM 85.3 °F 92.2 °F 73.4 °F 67% 30.04 in 10.0 mi South 4.6 mph - N/A   Scattered Clouds
1:55 PM 85.5 °F 92.6 °F 73.4 °F 67% 30.03 in 10.0 mi SSW 5.8 mph - N/A   Scattered Clouds
2:15 PM 86.9 °F 94.5 °F 73.6 °F 64% 30.02 in 10.0 mi Calm Calm - N/A   Clear
2:35 PM 87.8 °F 96.1 °F 73.8 °F 63% 30.02 in 10.0 mi SSW 5.8 mph - N/A   Clear
2:55 PM 88.5 °F 98.8 °F 75.2 °F 65% 30.02 in 10.0 mi Calm Calm - N/A   Clear
3:15 PM 89.8 °F 100.3 °F 75.2 °F 62% 30.00 in 10.0 mi Calm Calm - N/A   Clear
3:35 PM 89.6 °F 99.8 °F 74.8 °F 62% 30.00 in 10.0 mi SW 5.8 mph - N/A   Clear
3:55 PM 90.1 °F 98.3 °F 73.0 °F 57% 29.99 in 10.0 mi SSW 3.5 mph - N/A   Clear
4:15 PM 90.9 °F 99.4 °F 73.4 °F 56% 29.99 in 10.0 mi WSW 3.5 mph - N/A   Scattered Clouds
4:35 PM 91.6 °F 99.3 °F 72.1 °F 53% 29.98 in 10.0 mi SW 4.6 mph - N/A   Scattered Clouds
4:55 PM 91.0 °F 102.2 °F 75.4 °F 60% 29.97 in 10.0 mi Calm Calm - N/A   Scattered Clouds
5:15 PM 92.7 °F 99.4 °F 70.7 °F 49% 29.98 in 10.0 mi WSW 5.8 mph - N/A   Clear
5:35 PM 92.7 °F 97.7 °F 69.3 °F 46% 29.97 in 10.0 mi Calm Calm - N/A   Scattered Clouds
5:55 PM 92.7 °F 97.2 °F 68.7 °F 45% 29.97 in 10.0 mi NNW 4.6 mph - N/A   Clear
6:15 PM 91.8 °F 95.1 °F 67.1 °F 44% 29.97 in 10.0 mi NW 4.6 mph - N/A   Clear
6:35 PM 91.4 °F 96.8 °F 70.0 °F 49% 29.96 in 10.0 mi Calm Calm - N/A   Clear
6:55 PM 90.7 °F 97.4 °F 71.4 °F 53% 29.96 in 10.0 mi Calm Calm - N/A   Clear
7:15 PM 90.1 °F 96.8 °F 71.4 °F 54% 29.97 in 10.0 mi Calm Calm - N/A   Clear
7:35 PM 88.9 °F 96.6 °F 72.7 °F 59% 29.97 in 10.0 mi Calm Calm - N/A   Clear
7:55 PM 87.1 °F 94.5 °F 73.0 °F 63% 29.97 in 10.0 mi Calm Calm - N/A   Clear
8:15 PM 86.0 °F 93.0 °F 73.0 °F 65% 29.97 in 10.0 mi Calm Calm - N/A   Clear
8:35 PM 85.3 °F 91.8 °F 72.7 °F 66% 29.97 in 10.0 mi Calm Calm - N/A   Scattered Clouds
8:55 PM 84.2 °F 90.9 °F 73.4 °F 70% 29.97 in 10.0 mi SSW 4.6 mph - N/A   Scattered Clouds
9:15 PM 83.1 °F 89.8 °F 73.9 °F 74% 29.97 in 10.0 mi Calm Calm - N/A   Clear
9:35 PM 82.4 °F 88.7 °F 74.3 °F 76% 29.97 in 10.0 mi Calm Calm - N/A   Clear
9:55 PM 81.5 °F 86.9 °F 73.8 °F 77% 29.97 in 10.0 mi Calm Calm - N/A   Clear
10:15 PM 81.1 °F 86.4 °F 73.6 °F 78% 29.97 in 10.0 mi Calm Calm - N/A   Clear
10:35 PM 79.0 °F - 73.4 °F 83% 29.97 in 10.0 mi Calm Calm - N/A   Clear
10:55 PM 79.0 °F - 72.7 °F 81% 29.97 in 10.0 mi Calm Calm - N/A   Clear
11:15 PM 80.1 °F 84.2 °F 72.9 °F 79% 29.97 in 10.0 mi Calm Calm - N/A   Clear
11:35 PM 79.7 °F - 72.5 °F 79% 29.97 in 10.0 mi Calm Calm - N/A   Clear
11:55 PM 77.4 °F - 72.0 °F 83% 29.97 in 10.0 mi Calm Calm - N/A   Clear